Regional Weather Roundup
Issued by NWS

Home | Current Version | Previous Version | Graphics & Text | Print | Product List | Glossary On
Versions: 1 2 3 4 5 6 7 8 9 10 11 12 13 14 15 16 17 18 19 20 21 22 23 24 25 26 27 28 29 30 31 32 33 34 35 36 37 38 39 40 41 42 43 44 45 46 47 48 49 50
000
ASUS43 KDTX 280201
RWRMI
MICHIGAN HOURLY REGIONAL WEATHER ROUNDUP
NATIONAL WEATHER SERVICE DETROIT/PONTIAC MI
1000 PM EDT FRI MAR 27 2015

NOTE: "FAIR" INDICATES FEW OR NO CLOUDS BELOW 12,000 FEET WITH NO
SIGNIFICANT WEATHER AND/OR OBSTRUCTION TO VISIBILITY.

MIZ047>049-052>055-059>063-066>070-074>076-081>083-280300-
SOUTHEAST LOWER MICHIGAN

CITY           SKY/WX    TMP DP  RH WIND       PRES   REMARKS
ADRIAN         CLEAR     21  11  65 NE3       30.11R
ALMA           CLEAR     21   5  49 N13       30.16R WCI   9
ANN ARBOR      CLEAR     20   6  55 NE5       30.10R WCI  13
BAD AXE        CLOUDY    18   7  62 N8        30.14R WCI   8
CARO           CLEAR     15   7  72 CALM      30.15R
DETROIT CITY   CLEAR     21   6  52 N10       30.13R WCI  10
DETROIT        PTCLDY    22   7  52 N9        30.13R WCI  12
FLINT          CLEAR     19   9  65 NE12      30.14R WCI   7
GROSSE ILE     CLEAR     23   9  54 N10       30.11R WCI  12
HILLSDALE      CLEAR     23   2  41 N3        30.07R
HOWELL         MOCLDY    20   8  60 NE6       30.10R WCI  12

CITY           SKY/WX    TMP DP  RH WIND       PRES   REMARKS
JACKSON        CLEAR     21   4  47 N5        30.10R WCI  15
LAMBERTVILLE   CLEAR     23  14  68 CALM      30.12R
LANSING        CLEAR     21   5  50 NE7       30.13R WCI  12
LAPEER         FAIR      16   8  72 NE3       30.14R
MASON          CLEAR     20   7  55 NE5       30.11R WCI  14
MONROE         CLEAR     23  10  58 CALM      30.10R
MT. CLEMENS    CLEAR     17   8  67 N13       30.11R WCI   4
PONTIAC        PTCLDY    17   7  64 NE12      30.10R WCI   4
PORT HOPE        N/A     21   8  57 N8G18     30.13R WCI  11
PORT HURON     PTCLDY    16   9  73 NW8       30.13R WCI   5
TRI CITIES     CLEAR     20  10  65 E5        30.17R WCI  13
TROY           CLEAR     19   8  62 N7        30.15R WCI  10
SAGINAW HB     CLEAR     19  12  73 E3        30.16R
$$
MIZ043>046-050>051-056>058-064>065-071>073-077>080-280300-
SOUTHWEST LOWER MICHIGAN

CITY           SKY/WX    TMP DP  RH WIND       PRES   REMARKS
BATTLE CREEK   CLEAR     23  10  57 NW9       30.12R WCI  13
BENTON HARBOR  CLEAR     22  11  62 N8        30.17R WCI  12
BIG RAPIDS     CLEAR     17   2  51 N10       30.16R WCI   5
COLDWATER      CLEAR     23  10  56 NW7       30.11R WCI  15
FREMONT        FAIR      19  -4  35 N9        30.18R WCI   9
HOLLAND        CLEAR     22   6  50 N10G16    30.18R WCI  11
GRAND RAPIDS   CLEAR     21   0  39 N14       30.15R WCI   8
IONIA          FAIR      21   1  42 N7        30.13R WCI  12
KALAMAZOO      CLEAR     22   9  57 NW10      30.13R WCI  11
LUDINGTON      CLEAR     18   3  52 NE5       30.21S WCI  11
MARSHALL       CLEAR     22   2  41 CALM      30.10R
MOUNT PLEASANT CLEAR     19   3  51 N8        30.16R WCI   9
MUSKEGON       CLEAR     20   5  52 N12       30.20R WCI   8
SOUTH HAVEN    CLEAR     24  11  58 N9        30.16R WCI  14
$$
MIZ016>042-280300-
NORTHERN LOWER MICHIGAN

CITY           SKY/WX    TMP DP  RH WIND       PRES   REMARKS
ALPENA         CLEAR     16   3  56 NW8       30.16S WCI   5
BEAVER ISLAND  CLEAR     13   1  59 N3        30.22S
BELLAIRE       CLEAR     15   5  65 CALM      30.21S
CADILLAC       CLEAR     13   2  62 N3        30.13R
CHARLEVOIX     CLEAR     15   7  70 N6        30.24R WCI   7
FRANKFORT      CLEAR     20   3  47 CALM      30.21R
GAYLORD        CLEAR     12   3  67 VRB5      30.13R WCI   4
GRAYLING       CLEAR     12   1  60 NW5       30.15S WCI   5
HARBOR SPRINGS CLEAR     14   2  59 CALM      30.19S
HOUGHTON LAKE  CLEAR     14   1  56 NW7       30.15R WCI   4
MANISTEE       CLEAR     18   1  49 NE3       30.22R
OSCODA         MOCLDY    14   4  64 NW5       30.16R WCI   6
PELLSTON       CLEAR     15   3  59 N9        30.20R WCI   3
ROGERS CITY    CLEAR     18  10  73 NW9       30.18R WCI   6
TRAVERSE CITY  CLEAR     18   4  54 N5        30.20R WCI  11
$$
MIZ007>008-015-280300-
EASTERN UPPER MICHIGAN

CITY           SKY/WX    TMP DP  RH WIND       PRES   REMARKS
KINROSS        CLEAR      9   5  85 NW9       30.19R WCI  -5
MACKINAC ISLAN CLEAR     14   3  61 NW7       30.20R WCI   4
NEWBERRY       CLEAR      8   3  81 NW6       30.20S WCI  -2
S. S. MARIE    CLEAR     10   4  76 NW10      30.19S WCI  -4
$$
MIZ004>006-011>014-085-280300-
CENTRAL UPPER MICHIGAN

CITY           SKY/WX    TMP DP  RH WIND       PRES   REMARKS
MANISTIQUE     CLEAR      9   1  69 NW5       30.23R WCI   1
ESCANABA       CLEAR     16   1  53 NE5       30.22S WCI   9
MENOMINEE      CLEAR     19   7  58 E7        30.21R WCI  10
SAWYER-GWINN   CLEAR      7   0  72 CALM      30.17F
$$
MIZ001>003-009>011-084-280300-
WESTERN UPPER MICHIGAN

CITY           SKY/WX    TMP DP  RH WIND       PRES   REMARKS
IRON MOUNTAIN  CLEAR     20   1  43 NE3       30.17R
HOUGHTON       CLEAR     11   6  81 CALM      30.18S
COPPER HARBOR    N/A      8   1  73 W3        30.22S
IRONWOOD       CLEAR     18   9  68 CALM      30.14S
$$

ABBREVIATIONS USED IN REMARKS
   TC - TEMPERATURE IN CELSIUS
  WCI - WIND CHILL INDEX
   HX - HEAT INDEX
  VSB - VISIBILITY



USA.gov is the U.S. government's official web portal to all federal, state and local government web resources and services.